This demonstration page uses our WeatherBlox Daily Observations layout. Learn more.

Left ArrowRight Arrow

Hourly Observations for December 10, 2020

Temp ( °F °C ) Dew Point ( °F °C ) Humidity (%) Winds ( mph kmh ) Pressure ( in mb ) Visibility ( mi km ) Precip ( " mm )
12:51 am 00:51 Partly Cloudy 61 16.1 29 -1.7 30 30 E 8 13 29.83 1010 10 16 N/A
1:51 am 01:51 Mostly Cloudy 54 12.2 22 -5.6 29 29 NNW 6 9 29.86 1011 10 16 N/A
2:51 am 02:51 Cloudy with Light Rain 53 11.7 33 0.6 47 47 N 8 13 29.87 1011 10 16 0.00 0.00
3:51 am 03:51 Cloudy with Light Rain 50 10 42 5.6 74 74 WNW 12 19 29.88 1012 10 16 0.04 1.02
4:51 am 04:51 Cloudy with Light Rain 48 8.9 45 7.2 89 89 SE 7 11 29.92 1013 10 16 0.04 1.02
5:51 am 05:51 Cloudy with Heavy Rain 46 7.8 44 6.7 93 93 N N/A 29.95 1014 3 5 0.16 4.06
6:51 am 06:51 Cloudy with Light Rain 47 8.3 47 8.3 100 100 E 8 13 29.92 1013 10 16 0.13 3.30
7:51 am 07:51 Mostly Cloudy 49 9.4 47 8.3 93 93 SSE 8 13 29.92 1013 10 16 0.00 0.00
8:51 am 08:51 Sunny 50 10 48 8.9 93 93 SSE 13 20 29.91 1013 10 16 N/A
9:51 am 09:51 Sunny 54 12.2 48 8.9 80 80 SE 14 22 29.91 1013 10 16 N/A
10:51 am 10:51 Mostly Cloudy 56 13.3 49 9.4 77 77 SE 10 17 29.88 1012 10 16 N/A
11:51 am 11:51 Cloudy 58 14.4 48 8.9 70 70 SSE 7 11 29.85 1011 10 16 N/A
12:24 pm 12:24 Cloudy with Heavy Rain 54 12.2 50 10 87 87 W 17 28 29.88 1012 3 4 0.02 0.51
12:32 pm 12:32 Cloudy with Heavy Rain 52 11.1 50 10 93 93 NW 14 22 29.89 1012 1 2 0.10 2.54
12:38 pm 12:38 Cloudy with Heavy Rain 52 11.1 51 10.6 97 97 NNW 14 22 29.89 1012 2 3 0.14 3.56
12:47 pm 12:47 Cloudy with Light Rain 52 11 52 11 100 100 NW 17 28 29.89 1012 6 10 0.17 4.32
12:48 pm 12:48 Cloudy with Light Rain 52 11.1 52 11.1 100 100 NW 20 31 29.84 1011 7 11 0.17 4.32
1:51 pm 13:51 Cloudy 53 11.7 47 8.3 80 80 NW 17 28 29.86 1011 10 16 0.00 0.00
2:51 pm 14:51 Partly Cloudy 55 12.8 47 8.3 74 74 NW 17 28 29.85 1011 10 16 0.02 0.51
3:51 pm 15:51 Mostly Cloudy 54 12.2 44 6.7 69 69 WNW 17 28 29.88 1012 10 16 N/A
4:51 pm 16:51 Cloudy 52 11.1 46 7.8 80 80 NW 12 19 29.91 1013 10 16 N/A
5:51 pm 17:51 Cloudy 51 10.6 45 7.2 80 80 NW 12 19 29.93 1014 10 16 N/A
6:51 pm 18:51 Cloudy 51 10.6 46 7.8 83 83 NW 13 20 29.96 1014 10 16 0.00 0.00
7:51 pm 19:51 Mostly Cloudy 51 10.6 44 6.7 77 77 NNW 10 17 29.96 1015 10 16 N/A
8:51 pm 20:51 Cloudy 51 10.6 43 6.1 74 74 NW 12 19 29.97 1015 10 16 N/A
9:51 pm 21:51 Cloudy 50 10 43 6.1 77 77 NW 8 13 29.97 1015 10 16 N/A
10:51 pm 22:51 Cloudy 50 10 44 6.7 80 80 NNW 9 15 29.97 1015 10 16 N/A
11:51 pm 23:51 Mostly Cloudy 48 8.9 44 6.7 86 86 SW 6 9 29.96 1015 10 16 N/A

Powered by AerisWeather